• Em Portugal
  • Lista de países
  • Para 7 dias
  • Temperatura da água
  • Mapas de satélite
  • Mapa do tempo
  • Widgets de tempo
  • user-avatar
    Iniciar Sessão

    Previsão horária em Starosysoevka

    Hoje, 22 Maio, Terça-feira

    Tempo Temperatura Precipitação Vento Pressão Humidade
    00:00 +14°C° 0 mm 2 m/s 748 mmHg 31%
    01:00 +14°C° 0 mm 2 m/s 748 mmHg 31%
    02:00 +13°C° 0 mm 2 m/s 748 mmHg 31%
    03:00 +12°C° 0 mm 2 m/s 748 mmHg 31%
    04:00 +12°C° 0 mm 2 m/s 747 mmHg 34%
    05:00 +13°C° 0 mm 2 m/s 747 mmHg 38%
    06:00 +13°C° 0 mm 2 m/s 747 mmHg 41%
    07:00 +16°C° 0 mm 3 m/s 747 mmHg 38%
    08:00 +19°C° 0 mm 3 m/s 747 mmHg 34%
    09:00 +22°C° 0 mm 4 m/s 746 mmHg 31%
    10:00 +25°C° 0 mm 4 m/s 746 mmHg 29%
    11:00 +26°C° 0 mm 5 m/s 745 mmHg 26%
    12:00 +27°C° 0 mm 5 m/s 745 mmHg 24%
    13:00 +27°C° 0 mm 5 m/s 744 mmHg 24%
    14:00 +27°C° 0 mm 6 m/s 744 mmHg 24%
    15:00 +27°C° 0 mm 6 m/s 743 mmHg 23%
    16:00 +24°C° 0 mm 6 m/s 743 mmHg 28%
    17:00 +23°C° 0 mm 5 m/s 742 mmHg 32%
    18:00 +21°C° 0 mm 5 m/s 742 mmHg 36%
    19:00 +19°C° 0 mm 4 m/s 742 mmHg 40%
    20:00 +17°C° 0 mm 3 m/s 741 mmHg 43%
    21:00 +14°C° 0 mm 3 m/s 741 mmHg 47%
    22:00 +14°C° 0 mm 3 m/s 741 mmHg 51%
    23:00 +13°C° 0 mm 3 m/s 741 mmHg 54%

    Amanhã, 23 Maio, Quarta-feira

    Tempo Temperatura Precipitação Vento Pressão Humidade
    00:00 +13°C° 0 mm 3 m/s 740 mmHg 58%
    01:00 +13°C° 0,4 mm 2 m/s 740 mmHg 65%
    02:00 +13°C° 0,4 mm 2 m/s 739 mmHg 72%
    03:00 +13°C° 0,4 mm 2 m/s 738 mmHg 79%
    04:00 +13°C° 0,3 mm 1 m/s 738 mmHg 82%
    05:00 +13°C° 0,3 mm 1 m/s 737 mmHg 85%
    06:00 +13°C° 0,3 mm 1 m/s 737 mmHg 89%
    07:00 +12°C° 1,5 mm 1 m/s 736 mmHg 90%
    08:00 +12°C° 1,5 mm 2 m/s 735 mmHg 92%
    09:00 +12°C° 1,5 mm 2 m/s 735 mmHg 94%
    10:00 +10°C° 3,4 mm 3 m/s 734 mmHg 95%
    11:00 +9°C° 3,4 mm 3 m/s 734 mmHg 95%
    12:00 +7°C° 3,4 mm 4 m/s 734 mmHg 96%
    13:00 +8°C° 1,6 mm 3 m/s 733 mmHg 96%
    14:00 +8°C° 1,6 mm 3 m/s 733 mmHg 96%
    15:00 +8°C° 1,6 mm 3 m/s 733 mmHg 95%
    16:00 +8°C° 0,4 mm 2 m/s 733 mmHg 94%
    17:00 +9°C° 0,4 mm 2 m/s 734 mmHg 92%
    18:00 +10°C° 0,4 mm 1 m/s 734 mmHg 91%
    19:00 +9°C° 0 mm 1 m/s 735 mmHg 93%
    20:00 +8°C° 0 mm 1 m/s 735 mmHg 94%
    21:00 +7°C° 0 mm 1 m/s 736 mmHg 96%
    22:00 +6°C° 0 mm 2 m/s 736 mmHg 95%
    23:00 +6°C° 0 mm 2 m/s 736 mmHg 95%

    Depois de amanhã, 24 Maio, Quinta-feira

    Tempo Temperatura Precipitação Vento Pressão Humidade
    00:00 +6°C° 0 mm 2 m/s 737 mmHg 94%
    01:00 +5°C° 0 mm 2 m/s 736 mmHg 94%
    02:00 +5°C° 0 mm 2 m/s 736 mmHg 94%
    03:00 +5°C° 0 mm 2 m/s 736 mmHg 94%
    04:00 +6°C° 0 mm 2 m/s 736 mmHg 92%
    05:00 +6°C° 0 mm 2 m/s 736 mmHg 90%
    06:00 +7°C° 0 mm 2 m/s 737 mmHg 89%
    07:00 +10°C° 0 mm 2 m/s 736 mmHg 75%
    08:00 +12°C° 0 mm 3 m/s 736 mmHg 62%
    09:00 +16°C° 0 mm 3 m/s 736 mmHg 49%
    10:00 +17°C° 0 mm 3 m/s 736 mmHg 45%
    11:00 +18°C° 0 mm 3 m/s 736 mmHg 42%
    12:00 +20°C° 0 mm 4 m/s 736 mmHg 39%
    13:00 +20°C° 0 mm 4 m/s 735 mmHg 39%
    14:00 +20°C° 0 mm 4 m/s 735 mmHg 39%
    15:00 +21°C° 0 mm 4 m/s 735 mmHg 39%
    16:00 +20°C° 0,1 mm 3 m/s 734 mmHg 47%
    17:00 +19°C° 0,1 mm 3 m/s 734 mmHg 54%
    18:00 +18°C° 0,1 mm 2 m/s 734 mmHg 62%
    19:00 +16°C° 0,2 mm 2 m/s 735 mmHg 70%
    20:00 +14°C° 0,2 mm 2 m/s 735 mmHg 77%
    21:00 +12°C° 0,2 mm 2 m/s 735 mmHg 85%
    22:00 +10°C° 0,1 mm 2 m/s 735 mmHg 86%
    23:00 +10°C° 0,1 mm 2 m/s 736 mmHg 87%

    25 Maio, Sexta-feira

    Tempo Temperatura Precipitação Vento Pressão Humidade
    00:00 +10°C° 0,1 mm 2 m/s 736 mmHg 89%
    01:00 +11°C° 0 mm 1 m/s 736 mmHg 89%
    02:00 +10°C° 0 mm 1 m/s 736 mmHg 89%
    03:00 +10°C° 0 mm 1 m/s 736 mmHg 90%
    04:00 +11°C° 0 mm 1 m/s 736 mmHg 88%
    05:00 +11°C° 0 mm 1 m/s 736 mmHg 86%
    06:00 +12°C° 0 mm 1 m/s 736 mmHg 84%
    07:00 +14°C° 0 mm 1 m/s 737 mmHg 73%
    08:00 +16°C° 0 mm 2 m/s 737 mmHg 62%
    09:00 +18°C° 0 mm 2 m/s 737 mmHg 51%
    10:00 +19°C° 0 mm 3 m/s 737 mmHg 47%
    11:00 +20°C° 0 mm 4 m/s 737 mmHg 44%
    12:00 +20°C° 0 mm 4 m/s 737 mmHg 40%
    13:00 +20°C° 0,1 mm 4 m/s 737 mmHg 43%
    14:00 +20°C° 0,1 mm 4 m/s 737 mmHg 46%
    15:00 +20°C° 0,1 mm 4 m/s 738 mmHg 48%
    16:00 +19°C° 0 mm 4 m/s 738 mmHg 52%
    17:00 +18°C° 0 mm 3 m/s 738 mmHg 56%
    18:00 +18°C° 0 mm 3 m/s 739 mmHg 60%
    19:00 +16°C° 0 mm 2 m/s 740 mmHg 69%
    20:00 +13°C° 0 mm 1 m/s 740 mmHg 79%
    21:00 +11°C° 0 mm 1 m/s 741 mmHg 89%
    22:00 +11°C° 0 mm 1 m/s 742 mmHg 90%
    23:00 +10°C° 0 mm 1 m/s 742 mmHg 91%

    26 Maio, Sábado

    Tempo Temperatura Precipitação Vento Pressão Humidade
    00:00 +8°C° 0 mm 0 m/s 743 mmHg 93%
    01:00 +8°C° 0 mm 0 m/s 743 mmHg 93%
    02:00 +8°C° 0 mm 0 m/s 743 mmHg 94%
    03:00 +9°C° 0 mm 1 m/s 743 mmHg 94%
    04:00 +9°C° 0 mm 1 m/s 744 mmHg 92%
    05:00 +9°C° 0 mm 0 m/s 744 mmHg 90%
    06:00 +10°C° 0 mm 0 m/s 745 mmHg 89%
    07:00 +13°C° 0 mm 1 m/s 745 mmHg 78%
    08:00 +15°C° 0 mm 1 m/s 746 mmHg 68%
    09:00 +18°C° 0 mm 2 m/s 746 mmHg 57%
    10:00 +19°C° 0 mm 2 m/s 746 mmHg 52%
    11:00 +20°C° 0 mm 2 m/s 746 mmHg 48%
    12:00 +23°C° 0 mm 2 m/s 746 mmHg 43%
    13:00 +23°C° 0 mm 2 m/s 746 mmHg 43%
    14:00 +23°C° 0 mm 2 m/s 746 mmHg 43%
    15:00 +23°C° 0 mm 2 m/s 746 mmHg 43%
    16:00 +23°C° 0 mm 2 m/s 746 mmHg 48%
    17:00 +21°C° 0 mm 2 m/s 746 mmHg 53%
    18:00 +20°C° 0 mm 2 m/s 746 mmHg 58%
    19:00 +19°C° 0 mm 1 m/s 747 mmHg 68%
    20:00 +15°C° 0 mm 1 m/s 747 mmHg 78%
    21:00 +13°C° 0 mm 1 m/s 747 mmHg 88%
    22:00 +12°C° 0 mm 1 m/s 747 mmHg 89%
    23:00 +12°C° 0 mm 1 m/s 747 mmHg 91%

    27 Maio, Domingo

    Tempo Temperatura Precipitação Vento Pressão Humidade
    00:00 +11°C° 0 mm 1 m/s 747 mmHg 92%
    01:00 +11°C° 0 mm 1 m/s 747 mmHg 92%
    02:00 +11°C° 0 mm 1 m/s 747 mmHg 91%
    03:00 +11°C° 0 mm 1 m/s 747 mmHg 91%
    04:00 +12°C° 0 mm 1 m/s 747 mmHg 89%
    05:00 +12°C° 0 mm 1 m/s 747 mmHg 87%
    06:00 +13°C° 0 mm 1 m/s 747 mmHg 85%
    07:00 +15°C° 0 mm 1 m/s 747 mmHg 75%
    08:00 +19°C° 0 mm 1 m/s 747 mmHg 65%
    09:00 +22°C° 0 mm 1 m/s 747 mmHg 55%
    10:00 +22°C° 0 mm 1 m/s 746 mmHg 52%
    11:00 +23°C° 0 mm 1 m/s 746 mmHg 48%
    12:00 +24°C° 0 mm 2 m/s 746 mmHg 45%
    13:00 +23°C° 0 mm 2 m/s 746 mmHg 46%
    14:00 +23°C° 0 mm 2 m/s 745 mmHg 46%
    15:00 +23°C° 0 mm 2 m/s 745 mmHg 47%
    16:00 +21°C° 0 mm 2 m/s 745 mmHg 54%
    17:00 +19°C° 0 mm 2 m/s 745 mmHg 62%
    18:00 +19°C° 0 mm 1 m/s 745 mmHg 69%
    19:00 +16°C° 0,1 mm 1 m/s 745 mmHg 76%
    20:00 +15°C° 0,1 mm 1 m/s 745 mmHg 82%
    21:00 +13°C° 0,1 mm 1 m/s 746 mmHg 88%
    22:00 +13°C° 0,1 mm 1 m/s 746 mmHg 90%
    23:00 +12°C° 0,1 mm 1 m/s 746 mmHg 91%
    Mostrar mais